Weather in Petropavlovskoye

Russia / Stavropol Krai     45°05′10″N   44°17′31″E
temp.,
°C
wind,
m/s
gust,
m/s
humid.,
%
clouds,
%
prec.,
mm/h
press.,
hPa
HPBL,
m
8 august, mon
mon800:00+21e224811 0.0 101112
03:00+20se115610 0.0 101211
06:00+22ne2342100 0.0 101387
09:00+26ene343998 0.0 1014392
12:00+31ese45255 0.0 10142397
15:00+31se652317 0.0 10132752
18:00+30se44250 0.0 10131800
21:00+24ssw47431 0.0 1014125
9 august, tue
tue900:00+21sw22500 0.0 101512
03:00+20ssw11540 0.0 101411
06:00+22ese22480 0.0 101519
09:00+28se45300 0.0 1015922
12:00+32e56210 0.0 10143041
15:00+33e661914 0.0 10133277
18:00+32ese77210 0.0 10132871
21:00+26ese512300 0.0 1014256
10 august, wed
wed1000:00+23ese410400 0.0 1013181
03:00+21ese46520 0.0 1013105
06:00+21ese49630 0.0 1013257
09:00+29ese811350 0.0 10121472
12:00+33e1011250 0.0 10112622
15:00+34e810230 0.0 10092705
18:00+31e1011270 0.0 10101753
21:00+26e815460 0.0 1011576
11 august, thu
thu1100:00+24e715520 0.0 1010508
03:00+23e615605 0.0 1009493
06:00+24ene715591 0.0 1009556
09:00+32ese913283 0.0 10091607
12:00+36ese1012226 0.0 10082577
15:00+37ese12122147 0.0 10072930
18:00+32e1112305 0.0 10091605
21:00+27e9154569 0.0 1011586
12 august, fri
fri1200:00+26e9164474 0.0 1011759
03:00+25e8164828 0.0 1011720
06:00+25e816475 0.2 1012636
09:00+31ese812294 0.2 10121424
12:00+36e1011170 0.0 10112678
15:00+37e1212160 0.0 10102924
18:00+33e1112190 0.0 10121563
21:00+28e815300 0.0 1013517